Powrót do katalogu

STARLINK-34644

AktywnyŁącznośćVLEO
NORAD 64812·PAYLOAD·🇺🇸 United States

Wystrzelony Jul 16, 2025 z Vandenberg Space Force Base

Loading…

Następne Przeloty (najbliższe 24 godziny)

TLE

ŚwieżeSource: CelesTrak SupGP

Epoka: Sep 15, 2026, 02:30 UTC

1 64812C 25150Y   26258.10465278  .00025173  00000+0  21096-2 0  2585
2 64812  70.0031  16.9333 0003347 268.1017 196.4853 14.98316918    18

Śledź STARLINK-34644 w czasie rzeczywistym z AllMySat

Download on the App Store